Regional Weather Roundup
Issued by NWS Sterling, VA

Home | Current Version | Previous Version | Graphics & Text | Print | Product List | Glossary On
Versions: 1 2 3 4 5 6 7 8 9 10 11 12 13 14 15 16 17 18 19 20 21 22 23 24 25 26 27 28 29 30 31 32 33 34 35 36 37 38 39 40 41 42 43 44 45 46 47 48 49 50
000
ASUS41 KLWX 021610
RWRLWX

REGIONAL WEATHER ROUNDUP
NATIONAL WEATHER SERVICE BALTIMORE MD/WASHINGTON DC
1200 PM EDT SUN AUG 02 2015

Note: "FAIR" indicates few or no clouds below 12,000 feet
with no significant weather and/or obstructions to visibility.
 TC=TEMPERATURE CELSIUS

 * =Non NWS site. Station does not report precipitation (e.g. rain,
    snow, etc.), thunder, or fog.

DCZ001-MDZ009-015-VAZ040>042-051-053>054-021700-
WASHINGTON METRO

CITY           SKY/WX    TMP DP  RH WIND       PRES   REMARKS
WASHINGTON NAT PTSUNNY   85  62  46 E3        29.98S
DULLES         PTSUNNY   82  61  48 NW3       29.99S
ANDREWS AFB    PTSUNNY   86  58  39 S2        29.97S
LEESBURG*      PTSUNNY   82  64  54 W7        30.00S
MANASSAS*      SUNNY     82  63  51 W5        29.99R
GAITHERSBURG*  MOSUNNY   81  61  50 NW5       30.02S

$$

MDZ006>007-011-014-021700-
BALTIMORE METRO

CITY           SKY/WX    TMP DP  RH WIND       PRES   REMARKS
BWI AIRPORT    PTSUNNY   85  55  35 S6        29.96S
MD SCIENCE CTR   N/A     86  55  34 MISG      29.96S
MARTIN STATE   PTSUNNY   84  64  51 CALM      29.98
ANNAPOLIS      MOSUNNY   84  54  35 CALM      29.96S
FORT MEADE*    PTSUNNY   81  61  50 SW5       30.00R

$$

MDZ012-015-019>023-021700-
MARYLAND EASTERN SHORE

CITY           SKY/WX    TMP DP  RH WIND       PRES   REMARKS
OCEAN CITY     PTSUNNY   83  65  54 NE8       29.95R
SALISBURY      MOSUNNY   84  63  49 N6        29.96R
BAY BRIDGE AP*   N/A     81  59  47 W6        29.97S
CAMBRIDGE*     MOSUNNY   82  59  44 N5        29.96S
EASTON*        MOSUNNY   86  59  39 VRB6      30.00S

$$

MDZ017>025-021700-
SOUTHERN MARYLAND

CITY           SKY/WX    TMP DP  RH WIND       PRES   REMARKS
PATUXENT RIVER PTSUNNY   85  61  44 N7        29.96S
ST INIGOES     MOSUNNY   85  61  44 VRB6      29.96S
LEONARDTOWN*   MOSUNNY   82  59  44 CALM      29.99S

$$

MDZ003>005-021700-
NORTH CENTRAL MARYLAND

CITY           SKY/WX    TMP DP  RH WIND       PRES   REMARKS
FREDERICK*     SUNNY     84  63  48 VRB5      30.00S
HAGERSTOWN APT MOSUNNY   82  58  43 S8        29.98S
WESTMINSTER*   MOSUNNY   81  55  41 W7        30.00R

$$

MDZ501>502-021700-
WESTERN MARYLAND

CITY           SKY/WX    TMP DP  RH WIND       PRES   REMARKS
OAKLAND*       CLOUDY    68  68 100 W8        30.09S
CUMBERLAND*    MOSUNNY   81  61  50 S5        30.02F

$$

VAZ025>031-021700-
SHENANDOAH VALLEY

CITY           SKY/WX    TMP DP  RH WIND       PRES   REMARKS
WINCHESTER*    PTSUNNY   81  59  47 S6        30.00S
FRONT ROYAL*   FAIR      81  61  50 S3        30.00S
LURAY*         FAIR      82  59  44 S5        30.02S
NEW MARKET*    FAIR      79  60  51 CALM      30.00F
STAUNTON*      MOSUNNY   82  56  41 CALM      30.06S
WAYNESBORO*    FAIR      76  56  48 CALM      30.05S

$$

WVZ021-048>050-054>055-021700-
EASTERN WEST VIRGINIA PANHANDLE

CITY           SKY/WX    TMP DP  RH WIND       PRES   REMARKS
MARTINSBURG    MOSUNNY   81  57  43 VRB5      29.99S
PETERSBURG*    SUNNY    N/A N/A N/A CALM      30.02S

$$

VAZ036>039-050-021700-
CENTRAL FOOTHILLS

CITY           SKY/WX    TMP DP  RH WIND       PRES   REMARKS
CHARLOTTESVILL MOSUNNY   83  56  39 E5        30.01S
CULPEPER*      MOSUNNY   80  62  53 CALM      30.00S
ORANGE*        MOSUNNY   82  55  39 CALM      30.01S
GORDONSVILLE*  FAIR      81  59  47 CALM      30.00S
WARRENTON*     FAIR      84  63  49 CALM      29.99S

$$

VAZ055>057-021700-
NORTH AND CENTRAL PIEDMONT

CITY           SKY/WX    TMP DP  RH WIND       PRES   REMARKS
FREDERICKSBRG* MOSUNNY   85  64  48 SE3       29.98S
STAFFORD*      MOSUNNY   83  58  42 NW3       30.02S

$$

NCZ024-NYZ072-PAZ021-071-VAZ022-071-021700-
OTHER REGIONAL OBSERVATIONS

CITY           SKY/WX    TMP DP  RH WIND       PRES   REMARKS
NEW YORK CITY  SUNNY     86  54  33 SW3       29.96S
PHILADELPHIA   PTSUNNY   85  55  35 W7        29.95S
PITTSBURGH     MOSUNNY   80  61  52 SW8       29.96F
ROANOKE        PTSUNNY   81  56  42 NE8       30.06S
RICHMOND       PTSUNNY   86  60  41 NE10      29.98R
RALEIGH        PTSUNNY   84  61  45 NE6       30.00R

$$

ANZ530>537-021700-
MARINE OBSERVATIONS

STATION/POSITION TIME  TEMP    WIND        PRES
                       AIR SEA DIR/SP/G
                 (UTC) (F)     (DEG/KT/KT) (MB)
THOMAS PT LIGHT  NOT AVBL
BALT KEY BRIDGE  1500   84        CALM     1014.6R
COVE POINT       1500   79      10/  7/ 10 1015.4R
LEWISETTA        1500   80 84   10/  6/  7 1014.3R
SOLOMONS ISLAND  1500      83                N/A
PINEY POINT      1500           20/  8/  9   N/A

$$




USA.gov is the U.S. government's official web portal to all federal, state and local government web resources and services.